Location: Endfield
(51.6667°N, 0.0667°W)
Time: 10:45:13
(UTC+00:00)

Cosmos 1726 - Pass Details

Date: 19 May 2024
Orbit: 382 x 391 km, 82.5° (Epoch: 14 June)

Event Time Altitude Azimuth Distance (km) Brightness Sun altitude
Rises 22:28:53 0° 338° (NNW) 2,335 7.4 -15.8°
Reaches altitude 10° 22:31:11 10° 322° (NW) 1,466 5.7 -15.9°
Maximum altitude 22:33:42 22° 270° (W) 941 3.7 -16.0°
Enters shadow 22:35:22 15° 229° (SW) 1,193 3.8 -16.1°
